AUA235 OEJN-HECA

Flight info

Callsign AUA235
Flight time 1h 43m
Altitude 40000
Route BOMOX M686 ALPOV DCT GIBAL DCT MOGAP DCT SOBEL DCT HGD DCT SOKOT DCT OBTAV
Aircraft B772/H-SDE2E3FGHIJ5LORVWXY/LB1D1

Departure

Time 2026-05-06 12:49
Airport King Abdulaziz International Airport (OEJN)

Arrival

Time 2026-05-06 14:33
Airport Cairo International Airport (HECA)
Time Latitude Longitude Altitude Speed Heading
2026-05-06 12:20 21.66252 39.17086 40 ft 0 kts 110°
2026-05-06 12:42 21.66255 39.17076 41 ft 2 kts 114°
2026-05-06 12:42 21.66262 39.17060 40 ft 2 kts 119°
2026-05-06 12:42 21.66271 39.17045 38 ft 2 kts 127°
2026-05-06 12:42 21.66281 39.17032 37 ft 2 kts 136°
2026-05-06 12:43 21.66294 39.17021 38 ft 2 kts 147°
2026-05-06 12:43 21.66308 39.17012 36 ft 2 kts 159°
2026-05-06 12:43 21.66324 39.17007 38 ft 2 kts 171°
2026-05-06 12:43 21.66341 39.17006 39 ft 2 kts 181°
2026-05-06 12:44 21.66357 39.17007 36 ft 2 kts 188°
2026-05-06 12:44 21.66371 39.17010 37 ft 1 kts 192°
2026-05-06 12:44 21.66375 39.17011 37 ft 0 kts 192°
2026-05-06 12:46 21.66362 39.17008 36 ft 12 kts 192°
2026-05-06 12:46 21.66278 39.16901 39 ft 21 kts 252°
2026-05-06 12:46 21.66226 39.16751 40 ft 21 kts 246°
2026-05-06 12:46 21.66174 39.16600 39 ft 21 kts 249°
2026-05-06 12:47 21.66148 39.16491 38 ft 12 kts 284°
2026-05-06 12:47 21.66215 39.16448 38 ft 7 kts 340°
2026-05-06 12:47 21.66216 39.16447 38 ft 0 kts 340°
2026-05-06 12:48 21.66401 39.16377 39 ft 72 kts 340°
2026-05-06 12:49 21.67204 39.16087 86 ft 164 kts 345°
2026-05-06 12:49 21.68341 39.15679 1121 ft 164 kts 338°
2026-05-06 12:49 21.69426 39.15238 2379 ft 185 kts 340°
2026-05-06 12:49 21.70795 39.14700 2928 ft 229 kts 340°
2026-05-06 12:50 21.72342 39.14034 3612 ft 239 kts 336°
2026-05-06 12:50 21.73935 39.13335 4236 ft 259 kts 339°
2026-05-06 12:50 21.75709 39.12646 4915 ft 272 kts 340°
2026-05-06 12:50 21.77515 39.11952 5622 ft 277 kts 340°
2026-05-06 12:51 21.79323 39.11254 6013 ft 283 kts 340°
2026-05-06 12:51 21.81194 39.10526 6064 ft 287 kts 340°
2026-05-06 12:51 21.83089 39.09783 6217 ft 291 kts 340°
2026-05-06 12:51 21.85000 39.09031 6448 ft 292 kts 339°
2026-05-06 12:52 21.86921 39.08274 6813 ft 297 kts 339°
2026-05-06 12:52 21.88868 39.07505 7200 ft 299 kts 339°
2026-05-06 12:52 21.90783 39.06704 7585 ft 299 kts 336°
2026-05-06 12:52 21.92688 39.05791 7947 ft 299 kts 333°
2026-05-06 12:53 21.94583 39.04862 8325 ft 300 kts 334°
2026-05-06 12:53 21.96495 39.03935 8708 ft 303 kts 334°
2026-05-06 12:53 21.98457 39.02993 9109 ft 311 kts 334°
2026-05-06 12:53 22.00445 39.02043 9528 ft 316 kts 332°
2026-05-06 12:54 22.02458 39.01081 9920 ft 316 kts 332°
2026-05-06 12:54 22.04510 39.00097 10308 ft 330 kts 333°
2026-05-06 12:54 22.06664 38.99064 10704 ft 348 kts 333°
2026-05-06 12:54 22.08913 38.97985 11111 ft 366 kts 333°
2026-05-06 12:55 22.11274 38.96856 11516 ft 377 kts 333°
2026-05-06 12:55 22.13680 38.95705 11907 ft 380 kts 333°
2026-05-06 12:55 22.16055 38.94570 12279 ft 381 kts 332°
2026-05-06 12:55 22.18484 38.93408 12668 ft 382 kts 333°
2026-05-06 12:56 22.20921 38.92244 13076 ft 384 kts 332°
2026-05-06 12:56 22.23378 38.91069 13478 ft 387 kts 332°
2026-05-06 12:56 22.25676 38.89644 13837 ft 380 kts 315°
2026-05-06 12:56 22.27351 38.87472 14202 ft 375 kts 296°
2026-05-06 12:57 22.28618 38.84999 14617 ft 380 kts 295°
2026-05-06 12:57 22.29918 38.82485 15002 ft 385 kts 295°
2026-05-06 12:57 22.31243 38.79960 15388 ft 386 kts 295°
2026-05-06 12:57 22.32574 38.77443 15761 ft 386 kts 296°
2026-05-06 12:58 22.33908 38.74931 16183 ft 385 kts 295°
2026-05-06 12:58 22.35227 38.72448 16625 ft 386 kts 295°
2026-05-06 12:58 22.36585 38.69887 17085 ft 388 kts 295°
2026-05-06 12:58 22.37932 38.67347 17537 ft 391 kts 295°
2026-05-06 12:59 22.39288 38.64786 18024 ft 394 kts 296°
2026-05-06 12:59 22.40655 38.62206 18454 ft 396 kts 296°
2026-05-06 12:59 22.42009 38.59651 18889 ft 398 kts 296°
2026-05-06 12:59 22.43383 38.57054 19354 ft 399 kts 295°
2026-05-06 13:00 22.44766 38.54441 19821 ft 400 kts 295°
2026-05-06 13:00 22.46154 38.51815 20300 ft 402 kts 295°
2026-05-06 13:00 22.47539 38.49194 20777 ft 403 kts 295°
2026-05-06 13:00 22.48937 38.46554 21267 ft 402 kts 296°
2026-05-06 13:01 22.50619 38.44115 21752 ft 412 kts 312°
2026-05-06 13:01 22.52857 38.42162 22269 ft 415 kts 317°
2026-05-06 13:01 22.54383 38.40900 22609 ft 419 kts 317°
2026-05-06 13:01 22.56707 38.38957 23153 ft 425 kts 317°
2026-05-06 13:02 22.59816 38.36324 23795 ft 431 kts 316°
2026-05-06 13:02 22.62182 38.34301 24247 ft 435 kts 316°
2026-05-06 13:02 22.64558 38.32257 24700 ft 436 kts 316°
2026-05-06 13:02 22.66936 38.30204 25160 ft 438 kts 315°
2026-05-06 13:03 22.68549 38.28809 25473 ft 439 kts 315°
2026-05-06 13:03 22.70908 38.26765 25934 ft 440 kts 315°
2026-05-06 13:03 22.73300 38.24692 26436 ft 441 kts 315°
2026-05-06 13:03 22.75703 38.22608 26926 ft 443 kts 315°
2026-05-06 13:04 22.78113 38.20516 27424 ft 444 kts 314°
2026-05-06 13:04 22.80525 38.18422 27948 ft 446 kts 314°
2026-05-06 13:04 22.82954 38.16311 28466 ft 447 kts 314°
2026-05-06 13:04 22.85390 38.14195 28988 ft 449 kts 314°
2026-05-06 13:05 22.87834 38.12070 29522 ft 451 kts 314°
2026-05-06 13:05 22.90286 38.09938 30057 ft 453 kts 313°
2026-05-06 13:05 22.92747 38.07796 30516 ft 455 kts 313°
2026-05-06 13:05 22.95215 38.05648 30977 ft 456 kts 313°
2026-05-06 13:06 22.97698 38.03487 31446 ft 457 kts 313°
2026-05-06 13:06 23.00185 38.01320 31927 ft 458 kts 313°
2026-05-06 13:06 23.02667 37.99158 32410 ft 458 kts 312°
2026-05-06 13:06 23.05158 37.96986 32906 ft 459 kts 312°
2026-05-06 13:07 23.07647 37.94814 33452 ft 459 kts 312°
2026-05-06 13:07 23.10103 37.92671 33949 ft 458 kts 312°
2026-05-06 13:07 23.12589 37.90501 34396 ft 458 kts 312°
2026-05-06 13:07 23.15066 37.88338 34859 ft 457 kts 311°
2026-05-06 13:08 23.17537 37.86178 35301 ft 455 kts 311°
2026-05-06 13:08 23.20002 37.84023 35767 ft 453 kts 311°
2026-05-06 13:08 23.22458 37.81873 36240 ft 451 kts 311°
2026-05-06 13:08 23.24898 37.79737 36723 ft 449 kts 311°
2026-05-06 13:09 23.27325 37.77611 37211 ft 446 kts 311°
2026-05-06 13:09 23.29737 37.75496 37715 ft 443 kts 311°
2026-05-06 13:09 23.32136 37.73392 38231 ft 440 kts 310°
2026-05-06 13:09 23.34509 37.71312 38734 ft 436 kts 310°
2026-05-06 13:10 23.36859 37.69252 39164 ft 432 kts 310°
2026-05-06 13:10 23.39187 37.67212 39615 ft 427 kts 311°
2026-05-06 13:10 23.41498 37.65183 39902 ft 428 kts 310°
2026-05-06 13:11 23.46207 37.61021 39880 ft 442 kts 311°
2026-05-06 13:11 23.51018 37.56771 39882 ft 454 kts 311°
2026-05-06 13:12 23.56001 37.52378 39886 ft 465 kts 311°
2026-05-06 13:12 23.61086 37.47897 39884 ft 472 kts 311°
2026-05-06 13:13 23.66197 37.43394 39861 ft 469 kts 311°
2026-05-06 13:13 23.71198 37.38990 39870 ft 463 kts 311°
2026-05-06 13:14 23.76203 37.34558 39886 ft 463 kts 311°
2026-05-06 13:14 23.81209 37.30118 39887 ft 463 kts 311°
2026-05-06 13:15 23.86179 37.25709 39885 ft 464 kts 311°
2026-05-06 13:15 23.91186 37.21263 39892 ft 464 kts 311°
2026-05-06 13:16 23.96236 37.16776 39879 ft 465 kts 311°
2026-05-06 13:16 24.01245 37.12321 39877 ft 466 kts 311°
2026-05-06 13:17 24.06274 37.07843 39879 ft 466 kts 311°
2026-05-06 13:17 24.11306 37.03358 39891 ft 467 kts 311°
2026-05-06 13:18 24.16352 36.98855 39898 ft 467 kts 311°
2026-05-06 13:18 24.21393 36.94352 39881 ft 467 kts 311°
2026-05-06 13:19 24.26422 36.89857 39882 ft 466 kts 311°
2026-05-06 13:19 24.31438 36.85366 39881 ft 465 kts 311°
2026-05-06 13:20 24.36417 36.80905 39884 ft 465 kts 311°
2026-05-06 13:20 24.41428 36.76409 39885 ft 464 kts 311°
2026-05-06 13:21 24.46430 36.71916 39899 ft 465 kts 311°
2026-05-06 13:21 24.51442 36.67411 39892 ft 464 kts 311°
2026-05-06 13:22 24.55908 36.63391 39891 ft 464 kts 311°
2026-05-06 13:22 24.60936 36.58862 39892 ft 463 kts 311°
2026-05-06 13:23 24.65659 36.54133 39896 ft 457 kts 307°
2026-05-06 13:23 24.70225 36.49271 39912 ft 457 kts 307°
2026-05-06 13:24 24.74759 36.44436 39904 ft 457 kts 307°
2026-05-06 13:24 24.79338 36.39572 39910 ft 458 kts 308°
2026-05-06 13:25 24.83924 36.34709 39905 ft 458 kts 308°
2026-05-06 13:25 24.88512 36.29842 39903 ft 458 kts 308°
2026-05-06 13:26 24.93095 36.24974 39916 ft 457 kts 308°
2026-05-06 13:26 24.97678 36.20099 39913 ft 458 kts 308°
2026-05-06 13:27 25.02258 36.15223 39903 ft 458 kts 308°
2026-05-06 13:27 25.06839 36.10340 39910 ft 457 kts 308°
2026-05-06 13:28 25.11380 36.05495 39906 ft 457 kts 308°
2026-05-06 13:28 25.15960 36.00600 39923 ft 457 kts 308°
2026-05-06 13:29 25.20532 35.95711 39914 ft 457 kts 308°
2026-05-06 13:29 25.25100 35.90822 39908 ft 457 kts 308°
2026-05-06 13:30 25.29664 35.85930 39912 ft 456 kts 308°
2026-05-06 13:30 25.34219 35.81042 39919 ft 456 kts 308°
2026-05-06 13:31 25.38772 35.76151 39917 ft 456 kts 308°
2026-05-06 13:31 25.43294 35.71288 39912 ft 456 kts 308°
2026-05-06 13:32 25.47846 35.66388 39930 ft 455 kts 308°
2026-05-06 13:32 25.52393 35.61487 39927 ft 455 kts 308°
2026-05-06 13:33 25.56929 35.56592 39920 ft 455 kts 308°
2026-05-06 13:33 25.61460 35.51698 39923 ft 454 kts 308°
2026-05-06 13:34 25.65984 35.46806 39929 ft 454 kts 308°
2026-05-06 13:34 25.70505 35.41911 39925 ft 453 kts 308°
2026-05-06 13:35 25.74995 35.37045 39923 ft 453 kts 308°
2026-05-06 13:35 25.79501 35.32156 39926 ft 452 kts 308°
2026-05-06 13:36 25.83998 35.27270 39923 ft 452 kts 308°
2026-05-06 13:36 25.88464 35.22413 39939 ft 452 kts 308°
2026-05-06 13:37 25.92948 35.17530 39927 ft 451 kts 308°
2026-05-06 13:37 25.97433 35.12641 39928 ft 451 kts 308°
2026-05-06 13:38 26.01910 35.07756 39926 ft 451 kts 308°
2026-05-06 13:38 26.06385 35.02877 39928 ft 450 kts 308°
2026-05-06 13:39 26.10865 34.97991 39947 ft 450 kts 308°
2026-05-06 13:39 26.15315 34.93129 39935 ft 450 kts 308°
2026-05-06 13:40 26.19782 34.88243 39936 ft 450 kts 308°
2026-05-06 13:40 26.24245 34.83354 39946 ft 450 kts 308°
2026-05-06 13:41 26.28719 34.78448 39936 ft 450 kts 308°
2026-05-06 13:41 26.33185 34.73546 39937 ft 450 kts 308°
2026-05-06 13:42 26.37647 34.68642 39937 ft 450 kts 308°
2026-05-06 13:42 26.42103 34.63739 39937 ft 450 kts 308°
2026-05-06 13:43 26.46555 34.58835 39947 ft 449 kts 308°
2026-05-06 13:43 26.50983 34.53951 39948 ft 449 kts 308°
2026-05-06 13:44 26.55432 34.49039 39948 ft 449 kts 308°
2026-05-06 13:44 26.59872 34.44130 39959 ft 450 kts 309°
2026-05-06 13:45 26.64327 34.39200 39963 ft 450 kts 309°
2026-05-06 13:45 26.70970 34.31838 39959 ft 450 kts 309°
2026-05-06 13:46 26.75416 34.26903 39960 ft 449 kts 309°
2026-05-06 13:46 26.79856 34.21968 39960 ft 449 kts 308°
2026-05-06 13:47 26.83545 34.17862 39964 ft 449 kts 309°
2026-05-06 13:47 26.88706 34.12124 39963 ft 449 kts 309°
2026-05-06 13:48 26.92388 34.08024 39965 ft 449 kts 309°
2026-05-06 13:48 26.96824 34.03077 39973 ft 449 kts 309°
2026-05-06 13:49 27.01256 33.98128 39969 ft 449 kts 309°
2026-05-06 13:49 27.05683 33.93178 39983 ft 449 kts 309°
2026-05-06 13:50 27.10081 33.88256 39969 ft 449 kts 309°
2026-05-06 13:50 27.14496 33.83309 39969 ft 448 kts 309°
2026-05-06 13:51 27.19078 33.78528 39966 ft 453 kts 316°
2026-05-06 13:51 27.24247 33.74390 39981 ft 456 kts 319°
2026-05-06 13:52 27.29439 33.70302 40000 ft 455 kts 318°
2026-05-06 13:52 27.34618 33.66179 39990 ft 456 kts 318°
2026-05-06 13:53 27.39750 33.62069 39984 ft 455 kts 318°
2026-05-06 13:53 27.44916 33.57927 39982 ft 455 kts 318°
2026-05-06 13:54 27.50070 33.53791 39981 ft 455 kts 318°
2026-05-06 13:54 27.52646 33.51722 39864 ft 457 kts 318°
2026-05-06 13:54 27.55266 33.49614 39689 ft 455 kts 318°
2026-05-06 13:55 27.57800 33.47576 39546 ft 453 kts 318°
2026-05-06 13:55 27.60363 33.45511 39393 ft 453 kts 318°
2026-05-06 13:55 27.62927 33.43442 39241 ft 452 kts 318°
2026-05-06 13:55 27.65475 33.41386 39080 ft 446 kts 318°
2026-05-06 13:56 27.67981 33.39366 38864 ft 440 kts 318°
2026-05-06 13:56 27.70467 33.37358 38645 ft 439 kts 318°
2026-05-06 13:56 27.72952 33.35347 38378 ft 439 kts 318°
2026-05-06 13:56 27.75426 33.33342 38099 ft 438 kts 318°
2026-05-06 13:57 27.77909 33.31330 37858 ft 437 kts 318°
2026-05-06 13:57 27.80383 33.29325 37594 ft 437 kts 318°
2026-05-06 13:57 27.82822 33.27348 37329 ft 437 kts 318°
2026-05-06 13:57 27.85293 33.25343 37079 ft 437 kts 318°
2026-05-06 13:58 27.87761 33.23341 36826 ft 437 kts 318°
2026-05-06 13:58 27.90236 33.21331 36575 ft 437 kts 319°
2026-05-06 13:58 27.92708 33.19323 36362 ft 438 kts 319°
2026-05-06 13:58 27.95181 33.17313 36124 ft 438 kts 319°
2026-05-06 13:59 27.97661 33.15296 35891 ft 438 kts 319°
2026-05-06 13:59 28.00137 33.13282 35653 ft 437 kts 319°
2026-05-06 13:59 28.02575 33.11273 35406 ft 430 kts 317°
2026-05-06 13:59 28.04901 33.09185 35161 ft 424 kts 316°
2026-05-06 14:00 28.07187 33.07084 34922 ft 421 kts 315°
2026-05-06 14:00 28.09451 33.04981 34692 ft 418 kts 316°
2026-05-06 14:00 28.11693 33.02897 34468 ft 416 kts 316°
2026-05-06 14:00 28.13922 33.00828 34228 ft 414 kts 316°
2026-05-06 14:01 28.16146 32.98766 33992 ft 412 kts 316°
2026-05-06 14:01 28.18334 32.96741 33732 ft 410 kts 316°
2026-05-06 14:01 28.20539 32.94701 33477 ft 409 kts 316°
2026-05-06 14:01 28.22742 32.92664 33216 ft 407 kts 316°
2026-05-06 14:02 28.24936 32.90633 32949 ft 407 kts 316°
2026-05-06 14:02 28.27126 32.88606 32720 ft 406 kts 316°
2026-05-06 14:02 28.29307 32.86586 32465 ft 406 kts 316°
2026-05-06 14:02 28.31493 32.84560 32203 ft 406 kts 316°
2026-05-06 14:03 28.33686 32.82527 31962 ft 405 kts 316°
2026-05-06 14:03 28.35870 32.80502 31710 ft 405 kts 316°
2026-05-06 14:03 28.38025 32.78502 31473 ft 404 kts 316°
2026-05-06 14:03 28.40200 32.76483 31228 ft 404 kts 316°
2026-05-06 14:04 28.42379 32.74458 30986 ft 403 kts 316°
2026-05-06 14:04 28.44549 32.72441 30751 ft 403 kts 316°
2026-05-06 14:04 28.46719 32.70423 30513 ft 402 kts 316°
2026-05-06 14:04 28.48879 32.68413 30278 ft 402 kts 316°
2026-05-06 14:05 28.51042 32.66400 29883 ft 400 kts 316°
2026-05-06 14:05 28.53184 32.64405 29314 ft 396 kts 316°
2026-05-06 14:05 28.55310 32.62426 28773 ft 393 kts 316°
2026-05-06 14:05 28.57413 32.60465 28259 ft 390 kts 316°
2026-05-06 14:06 28.59505 32.58513 27755 ft 387 kts 316°
2026-05-06 14:06 28.61584 32.56573 27250 ft 385 kts 316°
2026-05-06 14:06 28.63647 32.54646 26742 ft 383 kts 316°
2026-05-06 14:06 28.65696 32.52730 26325 ft 379 kts 316°
2026-05-06 14:07 28.67727 32.50831 25928 ft 375 kts 316°
2026-05-06 14:07 28.69732 32.48956 25528 ft 372 kts 316°
2026-05-06 14:07 28.71714 32.47101 25154 ft 368 kts 316°
2026-05-06 14:07 28.73655 32.45283 24777 ft 365 kts 317°
2026-05-06 14:08 28.75610 32.43453 24423 ft 361 kts 317°
2026-05-06 14:08 28.77545 32.41638 24052 ft 359 kts 317°
2026-05-06 14:08 28.79467 32.39834 23694 ft 356 kts 317°
2026-05-06 14:08 28.81374 32.38045 23284 ft 354 kts 317°
2026-05-06 14:09 28.83278 32.36258 22851 ft 352 kts 317°
2026-05-06 14:09 28.85162 32.34488 22449 ft 351 kts 317°
2026-05-06 14:09 28.87043 32.32718 22028 ft 349 kts 317°
2026-05-06 14:09 28.88912 32.30962 21627 ft 347 kts 317°
2026-05-06 14:10 28.90777 32.29207 21232 ft 345 kts 317°
2026-05-06 14:10 28.92624 32.27470 20847 ft 344 kts 317°
2026-05-06 14:10 28.94463 32.25738 20458 ft 342 kts 317°
2026-05-06 14:10 28.96292 32.24016 20075 ft 340 kts 317°
2026-05-06 14:11 28.98119 32.22294 19693 ft 339 kts 317°
2026-05-06 14:11 28.99933 32.20583 19315 ft 337 kts 317°
2026-05-06 14:11 29.01741 32.18877 18949 ft 336 kts 317°
2026-05-06 14:11 29.03513 32.17205 18585 ft 334 kts 317°
2026-05-06 14:12 29.05302 32.15516 18222 ft 333 kts 318°
2026-05-06 14:12 29.07083 32.13834 17793 ft 331 kts 318°
2026-05-06 14:12 29.08854 32.12160 17387 ft 330 kts 318°
2026-05-06 14:12 29.10616 32.10494 16977 ft 328 kts 318°
2026-05-06 14:13 29.12375 32.08831 16575 ft 327 kts 318°
2026-05-06 14:13 29.14120 32.07179 16196 ft 325 kts 318°
2026-05-06 14:13 29.15859 32.05533 15804 ft 323 kts 318°
2026-05-06 14:13 29.17591 32.03892 15433 ft 322 kts 318°
2026-05-06 14:14 29.19313 32.02261 15052 ft 321 kts 318°
2026-05-06 14:14 29.21027 32.00637 14671 ft 319 kts 318°
2026-05-06 14:14 29.22733 31.99019 14299 ft 317 kts 318°
2026-05-06 14:14 29.24430 31.97408 13934 ft 316 kts 318°
2026-05-06 14:15 29.26114 31.95809 13541 ft 314 kts 318°
2026-05-06 14:15 29.27771 31.94235 13132 ft 312 kts 318°
2026-05-06 14:15 29.29441 31.92647 12738 ft 311 kts 318°
2026-05-06 14:15 29.31099 31.91071 12382 ft 308 kts 318°
2026-05-06 14:16 29.32745 31.89506 12034 ft 306 kts 319°
2026-05-06 14:16 29.34372 31.87958 11680 ft 303 kts 319°
2026-05-06 14:16 29.35978 31.86431 11359 ft 300 kts 318°
2026-05-06 14:16 29.37581 31.84903 11025 ft 297 kts 319°
2026-05-06 14:17 29.39167 31.83393 10683 ft 296 kts 319°
2026-05-06 14:17 29.40746 31.81888 10353 ft 293 kts 319°
2026-05-06 14:17 29.42307 31.80399 10047 ft 291 kts 319°
2026-05-06 14:17 29.43859 31.78919 9674 ft 288 kts 319°
2026-05-06 14:18 29.45392 31.77456 9314 ft 286 kts 319°
2026-05-06 14:18 29.46915 31.76004 8991 ft 284 kts 319°
2026-05-06 14:18 29.48429 31.74557 8596 ft 283 kts 320°
2026-05-06 14:18 29.49937 31.73116 8235 ft 281 kts 320°
2026-05-06 14:19 29.51435 31.71683 7873 ft 280 kts 320°
2026-05-06 14:19 29.52932 31.70252 7516 ft 280 kts 320°
2026-05-06 14:19 29.54434 31.68817 7169 ft 281 kts 320°
2026-05-06 14:19 29.55934 31.67459 6867 ft 277 kts 322°
2026-05-06 14:20 29.57419 31.66056 6705 ft 269 kts 321°
2026-05-06 14:20 29.58805 31.64710 6589 ft 260 kts 321°
2026-05-06 14:20 29.60164 31.63373 6384 ft 254 kts 320°
2026-05-06 14:20 29.61499 31.62056 6139 ft 252 kts 321°
2026-05-06 14:21 29.62808 31.60756 6077 ft 246 kts 321°
2026-05-06 14:21 29.64114 31.59457 6028 ft 250 kts 321°
2026-05-06 14:21 29.65437 31.58138 6002 ft 252 kts 321°
2026-05-06 14:21 29.66760 31.56813 5994 ft 252 kts 321°
2026-05-06 14:22 29.68080 31.55491 5989 ft 251 kts 320°
2026-05-06 14:22 29.69384 31.54193 5989 ft 246 kts 320°
2026-05-06 14:22 29.70673 31.52915 5994 ft 242 kts 321°
2026-05-06 14:22 29.71931 31.51658 5822 ft 246 kts 320°
2026-05-06 14:23 29.73221 31.50367 5572 ft 247 kts 320°
2026-05-06 14:23 29.74518 31.49071 5336 ft 245 kts 321°
2026-05-06 14:23 29.75803 31.47786 5076 ft 244 kts 321°
2026-05-06 14:23 29.77076 31.46509 4822 ft 241 kts 321°
2026-05-06 14:24 29.78334 31.45238 4560 ft 239 kts 321°
2026-05-06 14:24 29.79577 31.43974 4305 ft 238 kts 321°
2026-05-06 14:24 29.80815 31.42715 4057 ft 236 kts 321°
2026-05-06 14:24 29.82037 31.41473 3801 ft 234 kts 321°
2026-05-06 14:25 29.83251 31.40235 3603 ft 230 kts 321°
2026-05-06 14:25 29.84438 31.39020 3544 ft 227 kts 321°
2026-05-06 14:25 29.85626 31.37801 3506 ft 230 kts 320°
2026-05-06 14:25 29.86806 31.36594 3513 ft 228 kts 321°
2026-05-06 14:26 29.88002 31.35373 3495 ft 226 kts 320°
2026-05-06 14:26 29.89179 31.34191 3496 ft 223 kts 320°
2026-05-06 14:26 29.90342 31.33029 3467 ft 220 kts 321°
2026-05-06 14:26 29.91516 31.31856 3227 ft 226 kts 321°
2026-05-06 14:27 29.92708 31.30675 2906 ft 225 kts 321°
2026-05-06 14:27 29.93876 31.29521 2767 ft 217 kts 321°
2026-05-06 14:27 29.95060 31.28484 2713 ft 212 kts 336°
2026-05-06 14:27 29.96500 31.28240 2698 ft 213 kts
2026-05-06 14:28 29.97905 31.28662 2720 ft 205 kts 15°
2026-05-06 14:28 29.99225 31.29213 2674 ft 200 kts 27°
2026-05-06 14:28 30.00380 31.30047 2702 ft 196 kts 35°
2026-05-06 14:28 30.01469 31.31048 2714 ft 202 kts 37°
2026-05-06 14:29 30.02474 31.32187 2683 ft 202 kts 47°
2026-05-06 14:29 30.03395 31.33438 2395 ft 203 kts 47°
2026-05-06 14:29 30.04279 31.34632 2151 ft 190 kts 47°
2026-05-06 14:29 30.05123 31.35761 1874 ft 180 kts 47°
2026-05-06 14:30 30.05914 31.36818 1670 ft 166 kts 47°
2026-05-06 14:30 30.06622 31.37764 1449 ft 147 kts 46°
2026-05-06 14:30 30.07057 31.38344 1343 ft 141 kts 44°
2026-05-06 14:30 30.07658 31.39146 1161 ft 128 kts 47°
2026-05-06 14:31 30.08457 31.40211 947 ft 132 kts 46°
2026-05-06 14:31 30.09060 31.41027 726 ft 131 kts 46°
2026-05-06 14:31 30.09455 31.41555 647 ft 131 kts 47°
2026-05-06 14:31 30.10077 31.42384 468 ft 137 kts 45°
2026-05-06 14:32 30.10697 31.43230 384 ft 135 kts 45°
2026-05-06 14:32 30.11232 31.43923 379 ft 91 kts 50°
2026-05-06 14:32 30.11538 31.44325 379 ft 57 kts 48°
2026-05-06 14:32 30.11809 31.44684 379 ft 54 kts 49°
2026-05-06 14:33 30.11984 31.44771 379 ft 30 kts 320°
2026-05-06 14:33 30.11947 31.44582 379 ft 7 kts 229°
2026-05-06 14:33 30.11946 31.44581 379 ft 0 kts 229°
2026-05-06 14:34 30.11945 31.44580 379 ft 4 kts 229°
2026-05-06 14:34 30.11852 31.44453 379 ft 36 kts 230°
2026-05-06 14:34 30.11658 31.44191 379 ft 41 kts 228°
2026-05-06 14:35 30.11489 31.43962 379 ft 35 kts 230°
2026-05-06 14:35 30.11336 31.43758 379 ft 33 kts 229°
2026-05-06 14:35 30.11237 31.43607 379 ft 16 kts 263°
2026-05-06 14:35 30.11244 31.43453 379 ft 22 kts 279°
2026-05-06 14:36 30.11359 31.43311 379 ft 27 kts 320°
2026-05-06 14:36 30.11513 31.43157 379 ft 31 kts 320°
2026-05-06 14:36 30.11674 31.42998 379 ft 22 kts 319°
2026-05-06 14:36 30.11807 31.42867 379 ft 28 kts 319°
2026-05-06 14:37 30.11967 31.42708 379 ft 33 kts 320°
2026-05-06 14:37 30.12143 31.42532 379 ft 28 kts 318°
2026-05-06 14:37 30.12149 31.42333 379 ft 32 kts 230°
2026-05-06 14:37 30.11992 31.42119 379 ft 38 kts 228°
2026-05-06 14:38 30.11807 31.41872 379 ft 43 kts 230°
2026-05-06 14:38 30.11651 31.41663 379 ft 29 kts 229°
2026-05-06 14:38 30.11496 31.41453 379 ft 38 kts 229°
2026-05-06 14:38 30.11305 31.41204 379 ft 42 kts 229°
2026-05-06 14:39 30.11126 31.40965 379 ft 24 kts 229°
2026-05-06 14:39 30.11079 31.40817 379 ft 21 kts 283°
2026-05-06 14:39 30.11024 31.40671 379 ft 21 kts 228°
2026-05-06 14:39 30.10928 31.40546 379 ft 21 kts 229°
2026-05-06 14:40 30.10834 31.40419 379 ft 21 kts 231°
2026-05-06 14:40 30.10740 31.40290 379 ft 21 kts 228°
2026-05-06 14:40 30.10643 31.40166 379 ft 21 kts 227°
2026-05-06 14:40 30.10548 31.40041 379 ft 21 kts 229°
2026-05-06 14:41 30.10491 31.39897 379 ft 21 kts 285°
2026-05-06 14:41 30.10614 31.39829 379 ft 21 kts 349°
2026-05-06 14:41 30.10742 31.39787 379 ft 14 kts 322°
2026-05-06 14:41 30.10745 31.39699 379 ft 0 kts 256°